Zurück zum Katalog

STARLINK-5279

AktivKommunikationVLEO
NORAD 54165·PAYLOAD·🇺🇸 United States

Gestartet Oct 28, 2022 von Vandenberg Space Force Base

Loading…

Nächste Überflüge (nächste 24 Stunden)

TLE

AktuellSource: CelesTrak SupGP

Epoche: Sep 15, 2026, 01:27 UTC

1 54165C 22141J   26258.06090278  .00690200  00000+0  26807-1 0  2584
2 54165  53.1610 242.6839 0001503  94.3675 340.8205 15.25197556    15

Verfolge STARLINK-5279 in Echtzeit mit AllMySat

Download on the App Store